PEGASUS DEB, 24581

Orbit data source: Space-Track

PEGASUS DEB, 24581 is space debris in LEO originally from a launch on Thu, 19 May 1994 UTC launched from the Air Force Western Test Range (AFWTR). Debris objects in space refer to the collection of defunct objects orbiting the Earth. Examples of debris include non-operational satellites, rocket bodies, and fragments generated from explosions, collisions, or faulty payload assembly.

Loading next visibility...
Identifier
24581, 1994-029YH
Orbit
LEO
Country
Flag of USUS
Related business
Manufacturer
Unknown
Mission
Spacecraft
Bus & Motor
Unknown
Mass
Unknown
Launch date (UTC)
1994-05-19 (32 years ago)
Launch vehicle
Unknown
Launch site
Air Force Western Test Range (AFWTR)
Object type
Payload
Rocket body
Debris
Shape & HBR
Unknown shape, 0.1 m
Radar Cross Section
Small (<0.1 m²)

Expand to show TLE details & history
Last TLE update: 12 hours ago

TLE from 12 hours ago
0 PEGASUS DEB
1 24581U 94029YH  26121.88108839  .00001866  00000-0  67979-3 0  9993
2 24581  81.5460  52.4926 0728923 150.6961 282.9055 13.39952360429707
Epoch: 2026-05-01T21:08Z
TLE epoch observation values (Epoch: 2026-05-01T21:08:46.036Z)
Latitude
64.0851°
Longitude
-106.78961°
Altitude
1,037.156 km
Speed
7.38 km/s
True Right ascension
04h 40m 50s
True Declination
63° 57' 17"
Sunlit
Object was in daylight at epoch
Visualization orbit readout
Latitude
Unknown
Longitude
Unknown
Altitude
Unknown
Speed
Unknown
Apparent Right ascension
Unknown
Apparent Declination
Unknown
Sunlit
N/A
Visualization observer readout
Local Sidereal Time
16:31:32
Azimuth
Unknown
Elevation
Unknown
Doppler factor
Unknown
Orbital elements
Apogee altitude
1,652.276 km
Perigee altitude
561.103 km
Semi-major axis
7,484.827 km
Eccentricity
0.07289
Inclination
81.546°
RAAN
52.4926°
Arg. of periapsis
150.6961°
True anomaly
274.62367°
Mean anomaly
282.9055°
Eccentric anomaly
278.778°
Mean motion
3.35174 °/min
Orbital period
107.41 mins
BSTAR
0.00067979
Loading maneuver chart data...
Computing Atmospheric mass density...

Documentation

Showing up to 5 results
|